Location: Boitzum
(52.1496°N, 9.6943°E)
Time: 05:15:05
(UTC+00:00)

Cosmos 2074 Rocket - Pass Details

Date: 24 April 2026
Orbit: 967 x 984 km, 82.9° (Epoch: 15 May)

Event Time Altitude Azimuth Distance (km) Brightness Sun altitude
Rises 19:33:28 0° 244° (WSW) 3,674 7.4 -8.7°
Reaches altitude 10° 19:36:54 10° 263° (W) 2,734 7.1 -9.2°
Maximum altitude 19:41:02 18° 304° (NW) 2,215 7.2 -9.7°
Drops below altitude 10° 19:45:11 10° 346° (NNW) 2,750 7.2 -10.2°
Sets 19:48:40 0° 5° (N) 3,705 7.5 -10.6°
